Location: Berlin
(52.5171°N, 13.3759°E)
Time: 17:07:45
(UTC+02:00)

ISS - Visible Passes

Search period start: 29 March 2017 00:00
Search period end: 08 April 2017 00:00
Orbit: 399 x 409 km, 51.6° (Epoch: 30 March)

Date Brightness Start Highest point End Pass type
(mag) Time Alt. Az. Time Alt. Az. Time Alt. Az.
29 Mar -2.6 21:43:05 10° SW 21:45:05 30° SSW 21:45:05 30° SSW visible
30 Mar -2.9 20:51:02 10° SW 20:53:58 31° SSE 20:55:20 22° ESE visible
30 Mar -1.5 22:26:54 10° WSW 22:28:00 19° WSW 22:28:00 19° WSW visible
31 Mar -3.9 21:34:37 10° WSW 21:37:50 61° SSE 21:38:05 59° SE visible
01 Apr -3.5 20:42:22 10° SW 20:45:30 47° SSE 20:48:01 15° E visible
01 Apr -2.5 22:18:35 10° W 22:20:40 36° W 22:20:40 36° W visible
02 Apr -3.9 21:26:12 10° W 21:29:28 75° S 21:30:29 40° E visible
02 Apr -0.9 23:02:37 10° W 23:03:08 14° W 23:03:08 14° W visible
03 Apr -3.8 20:33:51 10° WSW 20:37:05 65° SSE 20:40:13 11° E visible
03 Apr -3.3 22:10:13 10° W 22:12:52 53° WSW 22:12:52 53° WSW visible
04 Apr -3.9 21:17:48 10° W 21:21:04 78° S 21:22:32 30° E visible
04 Apr -1.3 22:54:16 10° W 22:55:11 17° W 22:55:11 17° W visible
05 Apr -3.8 20:25:23 10° W 20:28:39 77° S 20:31:56 10° E visible
05 Apr -3.5 22:01:49 10° W 22:04:48 54° SW 22:04:48 54° SW visible
06 Apr -3.8 21:09:22 10° W 21:12:37 68° S 21:14:25 24° ESE visible
06 Apr -1.4 22:45:57 10° W 22:47:03 17° WSW 22:47:03 17° WSW visible
07 Apr -3.0 21:53:23 10° W 21:56:27 37° SSW 21:56:38 37° SSW visible
